Time,TemperatureF,DewpointF,PressureIn,WindDirection,WindDirectionDegrees,WindSpeedMPH,WindSpeedGustMPH,Humidity,HourlyPrecipIn,Conditions,Clouds,dailyrainin,SoftwareType,DateUTC
2013-01-10 00:01:00,64.0,52.0,29.93,South,180,1.0,4.0,66,0.00,,,0.00,,2013-01-10 08:01:00,
2013-01-10 00:22:00,64.0,52.0,29.93,South,180,1.0,4.0,66,0.00,,,0.00,,2013-01-10 08:22:00,
2013-01-10 00:32:00,64.0,52.0,29.93,South,180,1.0,4.0,66,0.00,,,0.00,,2013-01-10 08:32:00,
2013-01-10 00:52:00,64.0,52.0,29.93,South,180,1.0,4.0,66,0.00,,,0.00,,2013-01-10 08:52:00,
2013-01-10 01:02:00,64.0,52.0,29.93,South,180,1.0,4.0,66,0.00,,,0.00,,2013-01-10 09:02:00,
2013-01-10 01:22:00,64.0,52.0,29.93,South,180,1.0,4.0,66,0.00,,,0.00,,2013-01-10 09:22:00,
2013-01-10 01:32:00,64.0,52.0,29.93,South,180,1.0,4.0,66,0.00,,,0.00,,2013-01-10 09:32:00,
2013-01-10 01:52:00,64.0,52.0,29.93,South,180,1.0,4.0,66,0.00,,,0.00,,2013-01-10 09:52:00,
2013-01-10 02:02:00,64.0,52.0,29.93,South,180,1.0,4.0,66,0.00,,,0.00,,2013-01-10 10:02:00,
2013-01-10 02:22:00,64.0,52.0,29.93,South,180,1.0,4.0,66,0.00,,,0.00,,2013-01-10 10:22:00,
2013-01-10 02:32:00,64.0,52.0,29.93,South,180,1.0,4.0,66,0.00,,,0.00,,2013-01-10 10:32:00,
2013-01-10 03:02:00,64.0,52.0,29.93,South,180,1.0,4.0,66,0.00,,,0.00,,2013-01-10 11:02:00,
2013-01-10 03:22:00,64.0,52.0,29.93,South,180,1.0,4.0,66,0.00,,,0.00,,2013-01-10 11:22:00,
2013-01-10 03:32:00,64.0,52.0,29.93,South,180,1.0,4.0,66,0.00,,,0.00,,2013-01-10 11:32:00,
2013-01-10 03:53:00,64.0,52.0,29.94,South,180,1.0,4.0,66,0.00,,,0.00,,2013-01-10 11:53:00,
2013-01-10 04:02:00,64.0,52.0,29.93,South,180,1.0,4.0,66,0.00,,,0.00,,2013-01-10 12:02:00,
2013-01-10 04:22:00,64.0,52.0,29.93,South,180,1.0,4.0,66,0.00,,,0.00,,2013-01-10 12:22:00,
2013-01-10 04:32:00,64.0,52.0,29.93,South,180,1.0,4.0,66,0.00,,,0.00,,2013-01-10 12:32:00,
2013-01-10 04:53:00,64.0,52.0,29.92,South,180,1.0,4.0,66,0.00,,,0.00,,2013-01-10 12:53:00,
2013-01-10 05:02:00,64.0,52.0,29.93,South,180,1.0,4.0,66,0.00,,,0.00,,2013-01-10 13:02:00,
2013-01-10 05:22:00,64.0,52.0,29.93,South,180,1.0,4.0,66,0.00,,,0.00,,2013-01-10 13:22:00,
2013-01-10 05:32:00,64.0,52.0,29.94,South,180,1.0,4.0,66,0.00,,,0.00,,2013-01-10 13:32:00,
2013-01-10 05:53:00,64.0,52.0,29.94,South,180,1.0,4.0,66,0.00,,,0.00,,2013-01-10 13:53:00,
2013-01-10 06:02:00,64.0,52.0,29.94,South,180,1.0,4.0,66,0.00,,,0.00,,2013-01-10 14:02:00,
2013-01-10 06:22:00,64.0,52.0,29.94,South,180,1.0,4.0,66,0.00,,,0.00,,2013-01-10 14:22:00,
2013-01-10 06:32:00,64.0,52.0,29.93,South,180,1.0,4.0,66,0.00,,,0.00,,2013-01-10 14:32:00,
2013-01-10 06:53:00,64.0,52.0,29.94,South,180,1.0,4.0,66,0.00,,,0.00,,2013-01-10 14:53:00,
2013-01-10 07:02:00,64.0,52.0,29.94,South,180,1.0,4.0,66,0.00,,,0.00,,2013-01-10 15:02:00,
2013-01-10 07:22:00,64.0,52.0,29.95,South,180,1.0,4.0,66,0.00,,,0.00,,2013-01-10 15:22:00,
2013-01-10 07:32:00,64.0,52.0,29.95,South,180,1.0,4.0,66,0.00,,,0.00,,2013-01-10 15:32:00,
2013-01-10 07:53:00,64.0,52.0,29.95,South,180,1.0,4.0,66,0.00,,,0.00,,2013-01-10 15:53:00,
2013-01-10 08:02:00,64.0,52.0,29.96,South,180,1.0,4.0,66,0.00,,,0.00,,2013-01-10 16:02:00,
2013-01-10 08:22:00,64.0,52.0,29.95,South,180,1.0,4.0,66,0.00,,,0.00,,2013-01-10 16:22:00,
2013-01-10 08:32:00,64.0,52.0,29.96,South,180,1.0,4.0,66,0.00,,,0.00,,2013-01-10 16:32:00,
2013-01-10 08:53:00,64.0,52.0,29.96,South,180,1.0,4.0,66,0.00,,,0.00,,2013-01-10 16:53:00,
2013-01-10 09:02:00,64.0,52.0,29.97,South,180,1.0,4.0,66,0.00,,,0.00,,2013-01-10 17:02:00,
2013-01-10 09:33:00,64.0,52.0,29.96,South,180,1.0,4.0,66,0.00,,,0.00,,2013-01-10 17:33:00,
2013-01-10 09:53:00,64.0,52.0,29.96,South,180,1.0,4.0,66,0.00,,,0.00,,2013-01-10 17:53:00,
2013-01-10 10:02:00,64.0,52.0,29.96,South,180,1.0,4.0,66,0.00,,,0.00,,2013-01-10 18:02:00,
2013-01-10 10:12:00,64.0,52.0,29.96,South,180,1.0,4.0,66,0.00,,,0.00,,2013-01-10 18:12:00,
2013-01-10 10:32:00,64.0,52.0,29.96,South,180,1.0,4.0,66,0.00,,,0.00,,2013-01-10 18:32:00,
2013-01-10 10:43:00,64.0,52.0,29.96,South,180,1.0,4.0,66,0.00,,,0.00,,2013-01-10 18:43:00,
2013-01-10 11:02:00,64.0,52.0,29.95,South,180,1.0,4.0,66,0.00,,,0.00,,2013-01-10 19:02:00,
2013-01-10 11:12:00,50.0,42.0,29.94,West,270,4.0,8.0,74,0.00,,,0.00,,2013-01-10 19:12:00,
2013-01-10 11:22:00,50.0,42.0,29.94,West,270,4.0,8.0,74,0.00,,,0.00,,2013-01-10 19:22:00,
2013-01-10 11:32:00,51.0,42.0,29.94,SW,225,3.0,8.0,71,0.00,,,0.00,,2013-01-10 19:32:00,
2013-01-10 11:42:00,51.0,42.0,29.94,SW,225,3.0,8.0,71,0.00,,,0.00,,2013-01-10 19:42:00,
2013-01-10 11:53:00,51.0,41.0,29.93,SW,225,4.0,9.0,68,0.00,,,0.00,,2013-01-10 19:53:00,
2013-01-10 12:02:00,51.0,40.0,29.92,West,270,4.0,12.0,66,0.00,,,0.00,,2013-01-10 20:02:00,
2013-01-10 12:12:00,51.0,40.0,29.92,West,270,4.0,12.0,66,0.00,,,0.00,,2013-01-10 20:12:00,
2013-01-10 12:22:00,52.0,41.0,29.91,WNW,292,4.0,12.0,65,0.00,,,0.00,,2013-01-10 20:22:00,
2013-01-10 12:32:00,51.0,39.0,29.91,WNW,292,4.0,9.0,63,0.00,,,0.00,,2013-01-10 20:32:00,
2013-01-10 12:42:00,51.0,39.0,29.91,WNW,292,4.0,9.0,63,0.00,,,0.00,,2013-01-10 20:42:00,
2013-01-10 12:53:00,52.0,40.0,29.91,NW,315,2.0,8.0,64,0.00,,,0.00,,2013-01-10 20:53:00,
2013-01-10 13:02:00,53.0,39.0,29.91,North,360,4.0,10.0,59,0.00,,,0.00,,2013-01-10 21:02:00,
2013-01-10 13:12:00,53.0,39.0,29.91,North,360,4.0,10.0,59,0.00,,,0.00,,2013-01-10 21:12:00,
2013-01-10 13:22:00,53.0,37.0,29.90,West,270,4.0,11.0,54,0.00,,,0.00,,2013-01-10 21:22:00,
2013-01-10 13:32:00,52.0,37.0,29.90,NW,315,3.0,11.0,56,0.00,,,0.00,,2013-01-10 21:32:00,
2013-01-10 13:42:00,52.0,37.0,29.90,NW,315,3.0,11.0,56,0.00,,,0.00,,2013-01-10 21:42:00,
2013-01-10 13:53:00,53.0,37.0,29.90,SW,225,3.0,10.0,55,0.00,,,0.00,,2013-01-10 21:53:00,
2013-01-10 14:02:00,54.0,37.0,29.89,NW,315,4.0,10.0,52,0.00,,,0.00,,2013-01-10 22:02:00,
2013-01-10 14:12:00,54.0,37.0,29.89,NW,315,4.0,10.0,52,0.00,,,0.00,,2013-01-10 22:12:00,
2013-01-10 14:23:00,54.0,37.0,29.89,NW,315,4.0,10.0,52,0.00,,,0.00,,2013-01-10 22:23:00,
2013-01-10 14:32:00,54.0,36.0,29.89,South,180,3.0,10.0,51,0.00,,,0.00,,2013-01-10 22:32:00,
2013-01-10 14:42:00,54.0,36.0,29.89,South,180,3.0,10.0,51,0.00,,,0.00,,2013-01-10 22:42:00,
2013-01-10 15:02:00,54.0,37.0,29.90,NW,315,5.0,14.0,52,0.00,,,0.00,,2013-01-10 23:02:00,
2013-01-10 15:12:00,54.0,37.0,29.90,NW,315,5.0,14.0,52,0.00,,,0.00,,2013-01-10 23:12:00,
2013-01-10 15:22:00,53.0,36.0,29.90,NW,315,5.0,10.0,53,0.00,,,0.00,,2013-01-10 23:22:00,
2013-01-10 15:32:00,54.0,36.0,29.90,NE,45,5.0,11.0,51,0.00,,,0.00,,2013-01-10 23:32:00,
2013-01-10 15:42:00,54.0,36.0,29.90,NE,45,5.0,11.0,51,0.00,,,0.00,,2013-01-10 23:42:00,
2013-01-10 15:53:00,54.0,37.0,29.91,West,270,4.0,9.0,52,0.00,,,0.00,,2013-01-10 23:53:00,
2013-01-10 16:02:00,54.0,37.0,29.91,West,270,3.0,9.0,52,0.00,,,0.00,,2013-01-11 00:02:00,
2013-01-10 16:12:00,54.0,37.0,29.91,West,270,3.0,9.0,52,0.00,,,0.00,,2013-01-11 00:12:00,
2013-01-10 16:22:00,53.0,36.0,29.91,SW,225,2.0,5.0,53,0.00,,,0.00,,2013-01-11 00:22:00,
2013-01-10 16:32:00,53.0,34.0,29.91,West,270,3.0,8.0,48,0.00,,,0.00,,2013-01-11 00:32:00,
2013-01-10 16:42:00,53.0,34.0,29.91,West,270,3.0,8.0,48,0.00,,,0.00,,2013-01-11 00:42:00,
2013-01-10 16:53:00,51.0,33.0,29.92,East,90,3.0,10.0,50,0.00,,,0.00,,2013-01-11 00:53:00,
2013-01-10 17:02:00,50.0,33.0,29.92,North,360,3.0,7.0,52,0.00,,,0.00,,2013-01-11 01:02:00,
2013-01-10 17:12:00,49.0,34.0,29.93,NE,45,2.0,7.0,57,0.00,,,0.00,,2013-01-11 01:12:00,
2013-01-10 17:22:00,49.0,34.0,29.93,NE,45,2.0,7.0,57,0.00,,,0.00,,2013-01-11 01:22:00,
2013-01-10 17:32:00,49.0,34.0,29.93,NE,45,0.0,3.0,57,0.00,,,0.00,,2013-01-11 01:32:00,
2013-01-10 17:42:00,49.0,34.0,29.93,NE,45,0.0,3.0,57,0.00,,,0.00,,2013-01-11 01:42:00,
2013-01-10 17:53:00,49.0,34.0,29.93,NE,45,0.0,3.0,57,0.00,,,0.00,,2013-01-11 01:53:00,
2013-01-10 18:02:00,49.0,34.0,29.94,NE,45,0.0,3.0,57,0.00,,,0.00,,2013-01-11 02:02:00,
2013-01-10 18:12:00,49.0,34.0,29.94,NE,45,0.0,3.0,57,0.00,,,0.00,,2013-01-11 02:12:00,
2013-01-10 18:22:00,49.0,34.0,29.95,NE,45,0.0,3.0,57,0.00,,,0.00,,2013-01-11 02:22:00,
2013-01-10 18:32:00,43.0,36.0,29.96,West,270,2.0,4.0,76,0.00,,,0.00,,2013-01-11 02:32:00,
2013-01-10 18:42:00,43.0,36.0,29.96,West,270,2.0,4.0,76,0.00,,,0.00,,2013-01-11 02:42:00,
2013-01-10 18:53:00,45.0,39.0,29.96,West,270,2.0,6.0,78,0.00,,,0.00,,2013-01-11 02:53:00,
2013-01-10 19:02:00,45.0,38.0,29.96,SW,225,1.0,4.0,77,0.00,,,0.00,,2013-01-11 03:02:00,
2013-01-10 19:12:00,45.0,38.0,29.96,SW,225,1.0,4.0,77,0.00,,,0.00,,2013-01-11 03:12:00,
2013-01-10 19:22:00,44.0,38.0,29.97,West,270,1.0,3.0,78,0.00,,,0.00,,2013-01-11 03:22:00,
2013-01-10 19:32:00,44.0,38.0,29.97,SW,225,1.0,2.0,79,0.00,,,0.00,,2013-01-11 03:32:00,
2013-01-10 19:42:00,44.0,38.0,29.97,SW,225,1.0,2.0,79,0.00,,,0.00,,2013-01-11 03:42:00,
2013-01-10 20:02:00,42.0,36.0,29.98,SW,225,0.0,1.0,80,0.00,,,0.00,,2013-01-11 04:02:00,
2013-01-10 20:11:00,42.0,36.0,29.98,SW,225,0.0,1.0,80,0.00,,,0.00,,2013-01-11 04:11:00,
2013-01-10 20:22:00,41.0,36.0,29.99,SW,225,0.0,0.0,81,0.00,,,0.00,,2013-01-11 04:22:00,
2013-01-10 20:32:00,41.0,36.0,29.99,SW,225,0.0,0.0,81,0.00,,,0.00,,2013-01-11 04:32:00,
2013-01-10 20:42:00,41.0,36.0,29.99,SW,225,0.0,0.0,81,0.00,,,0.00,,2013-01-11 04:42:00,
2013-01-10 20:53:00,41.0,36.0,30.00,SW,225,0.0,0.0,81,0.00,,,0.00,,2013-01-11 04:53:00,
2013-01-10 21:03:00,37.0,34.0,30.00,South,180,0.0,1.0,88,0.00,,,0.00,,2013-01-11 05:03:00,
2013-01-10 21:12:00,37.0,34.0,30.00,South,180,0.0,1.0,88,0.00,,,0.00,,2013-01-11 05:12:00,
2013-01-10 21:22:00,36.0,33.0,30.00,South,180,0.0,1.0,90,0.00,,,0.00,,2013-01-11 05:22:00,
2013-01-10 21:33:00,36.0,33.0,30.01,South,180,0.0,1.0,90,0.00,,,0.00,,2013-01-11 05:33:00,
2013-01-10 21:42:00,36.0,33.0,30.01,South,180,0.0,1.0,90,0.00,,,0.00,,2013-01-11 05:42:00,
2013-01-10 21:52:00,36.0,34.0,30.01,SW,225,0.0,2.0,94,1.20,,,1.20,,2013-01-11 05:52:00,
2013-01-10 22:02:00,36.0,34.0,30.01,SW,225,0.0,1.0,94,0.00,,,0.00,,2013-01-11 06:02:00,
2013-01-10 22:11:00,36.0,34.0,30.01,SW,225,0.0,1.0,94,0.00,,,0.00,,2013-01-11 06:11:00,
2013-01-10 22:22:00,36.0,34.0,30.02,SW,225,0.0,1.0,94,0.00,,,0.00,,2013-01-11 06:22:00,
2013-01-10 22:32:00,36.0,34.0,30.02,SW,225,0.0,1.0,94,0.00,,,0.00,,2013-01-11 06:32:00,
2013-01-10 22:42:00,36.0,34.0,30.02,SW,225,0.0,1.0,94,0.00,,,0.00,,2013-01-11 06:42:00,
2013-01-10 22:52:00,36.0,34.0,30.03,SW,225,0.0,1.0,94,0.00,,,0.00,,2013-01-11 06:52:00,
2013-01-10 23:02:00,36.0,34.0,30.03,SW,225,0.0,1.0,94,0.00,,,0.00,,2013-01-11 07:02:00,
2013-01-10 23:11:00,36.0,34.0,30.03,SW,225,0.0,1.0,94,0.00,,,0.00,,2013-01-11 07:11:00,
2013-01-10 23:22:00,36.0,34.0,30.03,SW,225,0.0,1.0,94,0.00,,,0.00,,2013-01-11 07:22:00,
2013-01-10 23:32:00,36.0,34.0,30.03,SW,225,0.0,1.0,94,0.00,,,0.00,,2013-01-11 07:32:00,
2013-01-10 23:42:00,36.0,34.0,30.03,SW,225,0.0,1.0,94,0.00,,,0.00,,2013-01-11 07:42:00,
2013-01-10 23:52:00,36.0,34.0,30.03,SW,225,0.0,1.0,94,0.00,,,0.00,,2013-01-11 07:52:00,